This demonstration page uses our WeatherBlox Daily Observations layout. Learn more.

Left ArrowRight Arrow

Hourly Observations for December 11, 2015

Temp ( °F °C ) Dew Point ( °F °C ) Humidity (%) Winds ( mph kmh ) Pressure ( in mb ) Visibility ( mi km ) Precip ( " mm )
12:53 am 00:53 Cloudy 53 11.7 48 8.9 83 83 WSW 10 17 29.80 1009 9 14 N/A
1:53 am 01:53 Cloudy 53 11.7 49 9.4 86 86 WSW 7 11 29.80 1009 9 14 N/A
2:53 am 02:53 Cloudy 54 12.2 49 9.4 83 83 VRB 3 6 29.80 1009 8 13 N/A
3:53 am 03:53 Cloudy 54 12.2 50 10 87 87 SW 6 9 29.83 1010 8 13 N/A
4:53 am 04:53 Cloudy 54 12.2 50 10 87 87 SW 3 6 29.84 1011 8 13 N/A
5:53 am 05:53 Cloudy 54 12.2 50 10 87 87 N N/A 29.85 1011 8 13 N/A
6:45 am 06:45 Cloudy 54 12.2 50 10 87 87 N N/A 29.85 1011 7 11 N/A
6:53 am 06:53 Cloudy 54 12.2 50 10 87 87 N N/A 29.87 1011 7 11 N/A
7:53 am 07:53 Cloudy with Mist and Fog 52 11.1 50 10 93 93 N N/A 29.89 1012 6 10 N/A
8:24 am 08:24 Cloudy with Mist and Fog 54 12.2 51 10.6 90 90 SSW 3 6 29.94 1014 4 6 N/A
8:33 am 08:33 Cloudy with Mist and Fog 54 12.2 51 10.6 90 90 S 3 6 29.94 1014 4 6 N/A
8:53 am 08:53 Cloudy with Mist and Fog 55 12.8 52 11.1 90 90 N N/A 29.91 1013 4 6 N/A
9:14 am 09:14 Cloudy with Mist and Fog 56 13.3 52 11.1 87 87 N N/A 29.91 1013 4 6 N/A
9:38 am 09:38 Cloudy with Mist and Fog 57 13.9 53 11.7 87 87 SW 8 13 29.91 1013 5 8 N/A
9:53 am 09:53 Cloudy with Mist and Fog 57 13.9 53 11.7 87 87 SW 5 7 29.92 1013 5 8 N/A
10:53 am 10:53 Cloudy 58 14.4 53 11.7 84 84 VRB 5 7 29.94 1014 7 11 N/A
11:07 am 11:07 Cloudy with Haze 59 15 54 12.2 83 83 SW 3 6 29.94 1014 2 2 N/A
11:15 am 11:15 Cloudy 59 15 54 12.2 83 83 WSW 5 7 29.94 1014 8 13 N/A
11:36 am 11:36 Mostly Cloudy 60 15.6 53 11.7 78 78 undefined N/A 29.94 1014 9 14 N/A
11:53 am 11:53 Mostly Cloudy 60 15.6 54 12.2 80 80 WSW 7 11 29.93 1013 9 14 N/A
12:53 pm 12:53 Cloudy 61 16.1 54 12.2 78 78 WSW 6 9 29.92 1013 8 13 N/A
1:53 pm 13:53 Cloudy 62 16.7 54 12.2 75 75 SW 8 13 29.92 1013 8 13 N/A
2:53 pm 14:53 Cloudy 62 16.7 54 12.2 75 75 SW 7 11 29.91 1013 8 13 N/A
3:53 pm 15:53 Sunny 63 17.2 53 11.7 70 70 S 3 6 29.89 1012 8 13 N/A
4:53 pm 16:53 Cloudy 62 16.7 53 11.7 73 73 VRB 3 6 29.91 1013 9 14 N/A
5:07 pm 17:07 Cloudy 62 16.7 53 11.7 73 73 N N/A 29.91 1013 9 14 N/A
5:50 pm 17:50 Cloudy 63 17 54 12 73 73 VRB 3 6 29.91 1013 10 16 N/A
5:53 pm 17:53 Cloudy 62 16.7 54 12.2 75 75 N N/A 29.90 1013 10 16 N/A
6:53 pm 18:53 Cloudy 61 16.1 54 12.2 78 78 N N/A 29.92 1013 10 16 N/A
7:43 pm 19:43 Cloudy 61 16.1 54 12.2 78 78 ESE 3 6 29.94 1014 10 16 N/A
7:51 pm 19:51 Cloudy 61 16 54 12 77 77 N N/A 29.94 1014 10 16 N/A
7:53 pm 19:53 Cloudy 62 16.7 54 12.2 75 75 N N/A 29.94 1014 10 16 N/A
8:53 pm 20:53 Cloudy 59 15 55 12.8 87 87 E 3 6 29.95 1014 9 14 N/A
9:53 pm 21:53 Cloudy 58 14.4 56 13.3 93 93 N N/A 29.96 1015 8 13 0.01 0.25
10:53 pm 22:53 Mostly Cloudy 59 15 56 13.3 90 90 E 3 6 29.95 1014 7 11 N/A
11:53 pm 23:53 Cloudy 58 14.4 56 13.3 93 93 N N/A 29.94 1014 8 13 N/A

Powered by AerisWeather